Tracking 26321 objects as of 27-Nov-2022
HD Live streaming from Space Station
objects crossing your sky now

STARLINK-5053

Track STARLINK-5053 now!
10-day predictions
STARLINK-5053 is classified as:


NORAD ID: 53913
Int'l Code: 2022-119AD
Perigee: 370.2 km
Apogee: 370.5 km
Inclination: 53.2 °
Period: 91.8 minutes
Semi major axis: 6741 km
RCS: Unknown
Launch date: September 24, 2022
Source: United States (US)
Launch site: AIR FORCE EASTERN TEST RANGE (AFETR)
aabbcc
Your satellite tracking list
Your tracking list is empty




NASA's NSSDC Master Catalog

Two Line Element Set (TLE):
1 53913U 22119AD  22331.25001157 -.01168394  00000-0 -11220-1 0  9999
2 53913  53.2169 299.8131 0000275 174.0298  73.7286 15.68494329 10394
Source of the keplerian elements: AFSPC